Location: Bretagne
(43.8474°N, 0.4650°W)
Time: 11:42:06
(UTC+00:00)

Envisat - Pass Details

Date: 15 March 2026
Orbit: 761 x 762 km, 98.4° (Epoch: 14 April)

Event Time Altitude Azimuth Distance (km) Brightness Sun altitude
Rises 02:44:34 0° 13° (NNE) 3,234 6.9 -36.2°
Reaches altitude 10° 02:46:53 10° 14° (NNE) 2,304 6.0 -35.9°
Enters shadow 02:48:57 25° 15° (NNE) 1,507 4.9 -35.6°
